| time (UTC) | temp F | wind direction | speed MPH | gust MPH | rain 1hr in | rain 24hr in | rain mn in | humidity % | barometer mb |
| 20260901040110 | 63 | 263 | 0.0 | 1.0 | 0.00 | 0.00 | 0.00 | ||
| 20260901033050 | 64 | 248 | 0.0 | 2.0 | 0.00 | 0.00 | 0.00 | ||
| 20260901030058 | 65 | 257 | 0.0 | 2.0 | 0.00 | 0.00 | 0.00 | ||
| 20260901023038 | 67 | 221 | 0.0 | 2.0 | 0.00 | 0.00 | 0.00 | ||
| 20260901020110 | 69 | 237 | 1.0 | 4.0 | 0.00 | 0.00 | 0.00 | ||
| 20260901013029 | 71 | 195 | 2.0 | 5.0 | 0.00 | 0.00 | 0.00 | ||
| 20260901003049 | 73 | 233 | 2.0 | 4.0 | 0.00 | 0.00 | 0.00 | ||
| 20260901000103 | 74 | 14 | 1.0 | 5.0 | 0.00 | 0.00 | 0.00 | ||
| 20260831233022 | 76 | 96 | 0.0 | 5.0 | 0.00 | 0.00 | 0.00 | ||
| 20260831230046 | 76 | 137 | 1.0 | 7.0 | 0.00 | 0.00 | 0.00 | ||
| 20260831220107 | 76 | 242 | 2.0 | 7.0 | 0.00 | 0.00 | 0.00 | ||
| 20260831213046 | 75 | 153 | 2.0 | 7.0 | 0.00 | 0.00 | 0.00 | ||
| 20260831210055 | 74 | 192 | 2.0 | 6.0 | 0.00 | 0.00 | 0.00 | ||
| 20260831203037 | 72 | 173 | 2.0 | 7.0 | 0.00 | 0.00 | 0.00 | ||
| 20260831200104 | 72 | 350 | 1.0 | 7.0 | 0.00 | 0.00 | 0.00 | ||
| 20260831193023 | 71 | 99 | 0.0 | 5.0 | 0.00 | 0.00 | 0.00 | ||
| 20260831190107 | 70 | 69 | 2.0 | 8.0 | 0.00 | 0.00 | 0.00 | ||
| 20260831183028 | 69 | 63 | 3.0 | 8.0 | 0.00 | 0.00 | 0.00 | ||
| 20260831180052 | 67 | 55 | 3.0 | 9.0 | 0.00 | 0.00 | 0.00 | ||
| 20260831163050 | 60 | 86 | 2.0 | 4.0 | 0.00 | 0.00 | 0.00 | ||
| 20260831160059 | 57 | 59 | 2.0 | 3.0 | 0.00 | 0.00 | 0.00 | ||
| 20260831150107 | 54 | 273 | 0.0 | 1.0 | 0.00 | 0.00 | 0.00 | ||
| 20260831143047 | 52 | 273 | 0.0 | 0.0 | 0.00 | 0.00 | 0.00 | ||
| 20260831140055 | 52 | 273 | 0.0 | 0.0 | 0.00 | 0.00 | 0.00 | ||
| 20260831133035 | 52 | 273 | 0.0 | 0.0 | 0.00 | 0.00 | 0.00 | ||
| 20260831130104 | 52 | 273 | 0.0 | 0.0 | 0.00 | 0.00 | 0.00 | ||
| 20260831123042 | 52 | 273 | 0.0 | 1.0 | 0.00 | 0.00 | 0.00 | ||
| 20260831113037 | 53 | 273 | 0.0 | 0.0 | 0.00 | 0.00 | 0.00 | ||
| 20260831110105 | 53 | 273 | 0.0 | 0.0 | 0.00 | 0.00 | 0.00 | ||
| 20260831103041 | 54 | 273 | 0.0 | 1.0 | 0.00 | 0.00 | 0.00 | ||
| 20260831100052 | 54 | 273 | 0.0 | 0.0 | 0.00 | 0.00 | 0.00 | ||
| 20260831083045 | 55 | 273 | 0.0 | 0.0 | 0.00 | 0.00 | 0.00 | ||
| 20260831080051 | 56 | 273 | 0.0 | 0.0 | 0.00 | 0.00 | 0.00 | ||
| 20260831073036 | 56 | 273 | 0.0 | 0.0 | 0.00 | 0.00 | 0.00 | ||
| 20260831070105 | 57 | 273 | 0.0 | 0.0 | 0.00 | 0.00 | 0.00 | ||
| 20260831063044 | 57 | 273 | 0.0 | 0.0 | 0.00 | 0.00 | 0.00 | ||
| 20260831060050 | 58 | 273 | 0.0 | 0.0 | 0.00 | 0.00 | 0.00 | ||
| 20260831053029 | 58 | 273 | 0.0 | 0.0 | 0.00 | 0.00 | 0.00 | ||
| 20260831050053 | 59 | 218 | 0.0 | 1.0 | 0.00 | 0.00 | 0.00 | ||
| 20260831043052 | 59 | 218 | 0.0 | 0.0 | 0.00 | 0.00 | 0.00 |